TimeMST,TemperatureF,Dew PointF,Humidity,Sea Level PressureIn,VisibilityMPH,Wind Direction,Wind SpeedMPH,Gust SpeedMPH,PrecipitationIn,Events,Conditions,WindDirDegrees,DateUTC
12:15 AM,48.7,18.7,30,29.96,10.0,West,18.4,29.9,N/A,,Clear,260,2013-03-04 07:15:00
12:55 AM,48.9,17.6,29,29.96,10.0,West,20.7,27.6,N/A,,Clear,260,2013-03-04 07:55:00
1:15 AM,49.1,18.0,29,29.96,10.0,West,17.3,27.6,N/A,,Clear,260,2013-03-04 08:15:00
1:35 AM,48.2,18.1,30,29.95,10.0,West,15.0,25.3,N/A,,Clear,270,2013-03-04 08:35:00
1:55 AM,47.8,18.3,31,29.95,10.0,West,18.4,23.0,N/A,,Clear,270,2013-03-04 08:55:00
2:15 AM,47.8,18.1,31,29.95,10.0,West,15.0,32.2,N/A,,Clear,270,2013-03-04 09:15:00
2:35 AM,48.2,18.3,31,29.94,10.0,West,18.4,27.6,N/A,,Clear,260,2013-03-04 09:35:00
2:55 AM,47.7,17.4,30,29.93,10.0,West,17.3,24.2,N/A,,Clear,270,2013-03-04 09:55:00
3:15 AM,47.5,17.1,30,29.93,10.0,West,13.8,25.3,N/A,,Clear,280,2013-03-04 10:15:00
3:35 AM,46.8,16.5,30,29.94,10.0,WNW,12.7,18.4,N/A,,Clear,290,2013-03-04 10:35:00
3:55 AM,45.9,16.5,31,29.93,10.0,WNW,12.7,19.6,N/A,,Clear,300,2013-03-04 10:55:00
4:15 AM,43.5,15.8,33,29.94,10.0,NNW,5.8,-,N/A,,Clear,340,2013-03-04 11:15:00
4:35 AM,40.3,15.3,36,29.94,10.0,NE,5.8,-,N/A,,Scattered Clouds,50,2013-03-04 11:35:00
4:55 AM,41.7,16.0,35,29.94,10.0,North,5.8,-,N/A,,Mostly Cloudy,10,2013-03-04 11:55:00
5:15 AM,42.3,17.1,36,29.95,10.0,NNE,4.6,-,N/A,,Mostly Cloudy,30,2013-03-04 12:15:00
5:35 AM,40.5,17.1,39,29.95,10.0,Calm,Calm,-,N/A,,Overcast,0,2013-03-04 12:35:00
5:55 AM,38.7,17.1,42,29.96,10.0,NW,3.5,-,N/A,,Overcast,320,2013-03-04 12:55:00
6:15 AM,35.4,17.1,47,29.96,10.0,NW,3.5,-,N/A,,Overcast,320,2013-03-04 13:15:00
6:35 AM,37.0,16.7,44,29.96,10.0,Calm,Calm,-,N/A,,Overcast,0,2013-03-04 13:35:00
6:55 AM,35.1,17.1,48,29.96,10.0,Calm,Calm,-,N/A,,Overcast,0,2013-03-04 13:55:00
7:15 AM,37.6,17.6,44,29.96,10.0,Calm,Calm,-,N/A,,Overcast,0,2013-03-04 14:15:00
7:35 AM,37.4,18.1,46,29.96,10.0,Calm,Calm,-,N/A,,Overcast,0,2013-03-04 14:35:00
7:55 AM,39.6,18.7,43,29.96,10.0,Calm,Calm,-,N/A,,Overcast,0,2013-03-04 14:55:00
8:15 AM,42.4,19.0,39,29.96,10.0,SSW,3.5,-,N/A,,Overcast,200,2013-03-04 15:15:00
8:35 AM,46.4,18.7,33,29.97,10.0,SSW,3.5,-,N/A,,Overcast,200,2013-03-04 15:35:00
8:55 AM,46.9,18.1,32,29.98,10.0,SSW,3.5,-,N/A,,Overcast,200,2013-03-04 15:55:00
9:15 AM,49.1,21.6,34,29.97,10.0,NNW,8.1,21.9,N/A,,Overcast,330,2013-03-04 16:15:00
9:35 AM,49.1,23.5,37,29.98,10.0,West,23.0,32.2,N/A,,Overcast,280,2013-03-04 16:35:00
9:55 AM,49.5,22.8,35,29.97,10.0,West,16.1,26.5,N/A,,Mostly Cloudy,280,2013-03-04 16:55:00
10:15 AM,51.3,22.1,32,29.97,10.0,WNW,19.6,27.6,N/A,,Scattered Clouds,290,2013-03-04 17:15:00
10:35 AM,52.7,22.8,31,29.97,10.0,West,15.0,28.8,N/A,,Scattered Clouds,270,2013-03-04 17:35:00
10:55 AM,54.5,24.1,31,29.96,10.0,West,15.0,27.6,N/A,,Scattered Clouds,270,2013-03-04 17:55:00
11:15 AM,53.6,25.7,34,29.97,10.0,WNW,19.6,31.1,N/A,,Scattered Clouds,300,2013-03-04 18:15:00
11:35 AM,55.0,24.4,31,29.96,10.0,WNW,23.0,33.4,N/A,,Clear,300,2013-03-04 18:35:00
11:55 AM,56.3,22.1,27,29.95,10.0,West,23.0,31.1,N/A,,Scattered Clouds,270,2013-03-04 18:55:00
12:15 PM,57.6,20.7,24,29.94,10.0,West,19.6,34.5,N/A,,Scattered Clouds,270,2013-03-04 19:15:00
12:35 PM,57.2,20.8,24,29.94,10.0,West,23.0,33.4,N/A,,Scattered Clouds,270,2013-03-04 19:35:00
12:55 PM,57.4,21.7,25,29.93,10.0,WNW,26.5,31.1,N/A,,Scattered Clouds,290,2013-03-04 19:55:00
1:15 PM,56.8,21.0,25,29.93,10.0,West,26.5,35.7,N/A,,Overcast,280,2013-03-04 20:15:00
1:35 PM,57.0,21.4,25,29.93,10.0,West,26.5,31.1,N/A,,Mostly Cloudy,280,2013-03-04 20:35:00
2:15 PM,58.3,19.9,23,29.94,10.0,WNW,20.7,27.6,N/A,,Overcast,300,2013-03-04 21:15:00
2:35 PM,57.9,16.5,20,29.95,10.0,WNW,27.6,36.8,N/A,,Mostly Cloudy,300,2013-03-04 21:35:00
2:55 PM,54.7,22.1,28,29.97,10.0,NW,25.3,31.1,N/A,,Overcast,310,2013-03-04 21:55:00
3:15 PM,56.7,22.1,26,29.98,10.0,West,20.7,33.4,N/A,,Mostly Cloudy,280,2013-03-04 22:15:00
3:35 PM,55.4,22.5,28,29.98,10.0,NW,17.3,28.8,N/A,,Overcast,320,2013-03-04 22:35:00
3:55 PM,55.4,22.8,28,29.98,10.0,WNW,15.0,26.5,N/A,,Mostly Cloudy,290,2013-03-04 22:55:00
4:15 PM,56.8,21.7,26,29.98,10.0,West,16.1,23.0,N/A,,Mostly Cloudy,280,2013-03-04 23:15:00
4:35 PM,56.1,18.9,23,29.98,10.0,West,18.4,25.3,N/A,,Mostly Cloudy,280,2013-03-04 23:35:00
4:55 PM,54.9,19.6,25,29.99,10.0,WNW,13.8,27.6,N/A,,Mostly Cloudy,300,2013-03-04 23:55:00
5:15 PM,53.6,19.9,27,30.00,10.0,NW,20.7,27.6,N/A,,Mostly Cloudy,310,2013-03-05 00:15:00
5:35 PM,53.6,20.3,27,30.01,10.0,WNW,12.7,23.0,N/A,,Scattered Clouds,290,2013-03-05 00:35:00
5:55 PM,52.7,20.3,28,30.03,10.0,NW,15.0,23.0,N/A,,Clear,310,2013-03-05 00:55:00
6:15 PM,50.5,20.3,30,30.04,10.0,WNW,15.0,-,N/A,,Clear,300,2013-03-05 01:15:00
6:55 PM,46.9,20.3,35,30.06,10.0,WNW,12.7,-,N/A,,Clear,290,2013-03-05 01:55:00
7:35 PM,45.5,20.5,37,30.08,10.0,WNW,13.8,-,N/A,,Clear,290,2013-03-05 02:35:00
7:55 PM,44.8,20.1,37,30.09,10.0,West,10.4,-,N/A,,Clear,270,2013-03-05 02:55:00
8:15 PM,44.4,20.5,39,30.10,10.0,WNW,11.5,-,N/A,,Clear,290,2013-03-05 03:15:00
8:35 PM,40.3,19.4,43,30.12,10.0,North,8.1,-,N/A,,Clear,10,2013-03-05 03:35:00
8:55 PM,37.4,17.8,45,30.12,10.0,Calm,Calm,-,N/A,,Clear,0,2013-03-05 03:55:00
9:15 PM,34.2,17.2,50,30.13,10.0,North,3.5,-,N/A,,Clear,350,2013-03-05 04:15:00
9:35 PM,33.1,17.4,53,30.14,10.0,Calm,Calm,-,N/A,,Clear,0,2013-03-05 04:35:00
9:55 PM,31.6,16.3,53,30.15,10.0,NNW,4.6,-,N/A,,Clear,330,2013-03-05 04:55:00
10:15 PM,33.6,17.1,51,30.16,10.0,Calm,Calm,-,N/A,,Clear,0,2013-03-05 05:15:00
10:35 PM,32.4,17.4,54,30.16,10.0,WNW,3.5,-,N/A,,Clear,300,2013-03-05 05:35:00
10:55 PM,31.8,17.6,56,30.18,10.0,West,4.6,-,N/A,,Clear,270,2013-03-05 05:55:00
11:15 PM,29.8,15.6,56,30.18,10.0,NW,5.8,-,N/A,,Clear,310,2013-03-05 06:15:00
11:35 PM,27.9,15.1,59,30.18,10.0,NW,5.8,-,N/A,,Clear,320,2013-03-05 06:35:00
11:55 PM,27.0,14.4,59,30.18,10.0,NW,3.5,-,N/A,,Clear,320,2013-03-05 06:55:00